Location: Ladrillo (historical)
(32.8195°N, 117.2231°W)
Time: 10:31:00
(UTC+00:00)

Courier 1B - Pass Details

Date: 14 March 2021
Orbit: 963 x 1209 km, 28.3° (Epoch: 14 April)

Event Time Altitude Azimuth Distance (km) Brightness Sun altitude
Rises 11:40:48 0° 248° (WSW) 3,935 - -29.7°
Reaches altitude 10° 11:43:42 10° 244° (WSW) 2,939 - -29.1°
Exits shadow 11:49:52 50° 192° (SSW) 1,310 7.9 -27.9°
Maximum altitude 11:50:37 52° 170° (S) 1,271 8.0 -27.7°
Drops below altitude 10° 11:57:08 10° 95° (E) 2,771 10.8 -26.4°
Sets 11:59:49 0° 91° (E) 3,694 11.7 -25.9°
